Location: Asheville, NC
(35.6000°N, 82.5500°W)
Time: 07:03:28
(UTC-05:00)

Vanguard 2 - Pass Details

Date: 16 February 2018
Orbit: 553 x 2939 km, 32.9° (Epoch: 18 February)

Event Time Altitude Azimuth Distance (km) Brightness Sun altitude
Rises 16:34:14 0° 211° (SSW) 6,045 13.2 17.8°
Reaches altitude 10° 16:39:50 10° 199° (SSW) 4,612 12.4 16.8°
Maximum altitude 16:48:16 22° 155° (SSE) 2,974 10.7 15.3°
Drops below altitude 10° 16:54:20 10° 108° (ESE) 3,209 10.3 14.2°
Sets 16:57:22 0° 92° (E) 3,850 10.6 13.6°
